Home   Weather   Rwamagana   Past weeks
Flag for Rwanda

Past Weather in Rwamagana, Rwanda — Yesterday and Last 2 Weeks

Now
79 °F

Scattered clouds.


Feels Like: 80 °F
Forecast: 81 / 64 °F
Wind: 8 mph from South

Location: Kigali Airport

Current Time: Jun 5, 2020 at 12:45:13 pm

Latest Report: Jun 5, 2020 at 12:00 pm


Visibility: N/A

Pressure: 30.24 "Hg (25.35 "Hg at 1543m altitude)

Humidity: 48%

Dew Point: 57 °F

Location of RwamaganaLocation

Past Weather in Rwamagana — Graph

°F

Rwamagana Temperature Yesterday

Maximum temperature yesterday: 79 °F (at 1:30 pm)
Minimum temperature yesterday: 63 °F (at 4:00 am)
Average temperature yesterday: 71 °F

High & Low Weather Summary for the Past Weeks

 TemperatureHumidityPressure
High82 °F (May 26, 3:30 pm)100% (May 23, 5:00 am)30.30 "Hg (May 23, 5:00 am)
Low59 °F (May 23, 5:00 am)39% (May 30, 5:00 pm)30.07 "Hg (May 28, 5:00 pm)
Average71 °F66%30.18 "Hg
* Reported May 21 11:00 am — Jun 5 11:30 am, Rwamagana. Weather by CustomWeather, © 2020

Note: Actual official high and low records may vary slightly from our data, if they occured in-between our weather recording intervals... More about our weather records

Rwamagana Weather History for the Previous 24 Hours

Scroll right to see more
 ConditionsComfort  
Time TempWeatherWind HumidityBarometerVisibility
11:30 am
Fri, Jun 5
77 °FScattered clouds.7 mph51%30.27 "HgN/A
11:00 am77 °FScattered clouds.9 mph51%30.27 "HgN/A
10:00 am75 °FScattered clouds.6 mph57%30.27 "HgN/A
9:30 am73 °FScattered clouds.8 mph61%30.27 "HgN/A
8:30 am70 °FScattered clouds.3 mph69%30.27 "HgN/A
8:00 am72 °FScattered clouds.2 mph65%30.27 "HgN/A
7:30 am68 °FScattered clouds.2 mph78%30.27 "HgN/A
7:00 am63 °FPassing clouds.3 mph83%30.24 "HgN/A
6:00 am61 °FPassing clouds.5 mph88%30.21 "HgN/A
5:30 am63 °FPassing clouds.3 mph83%30.21 "HgN/A
5:00 am63 °FMild.3 mph83%30.21 "HgN/A
4:30 am63 °FPassing clouds.3 mph83%30.21 "HgN/A
4:00 am63 °FPassing clouds.5 mph83%30.21 "HgN/A
3:30 am63 °FPassing clouds.5 mph83%30.18 "HgN/A
3:00 am63 °FPassing clouds.3 mph83%30.18 "HgN/A
2:30 am64 °FPassing clouds.No wind78%30.18 "HgN/A
2:00 am66 °FPassing clouds.2 mph73%30.18 "HgN/A
1:00 am66 °FPassing clouds.2 mph73%30.21 "HgN/A
12:00 am66 °FPassing clouds.3 mph73%30.21 "HgN/A
11:00 pm
Thu, Jun 4
70 °FPassing clouds.2 mph60%30.21 "HgN/A
10:00 pm70 °FPassing clouds.2 mph57%30.21 "HgN/A
9:00 pm72 °FPassing clouds.5 mph57%30.21 "HgN/A
8:00 pm75 °FPassing clouds.6 mph50%30.18 "HgN/A
7:00 pm75 °FPassing clouds.3 mph50%30.15 "HgN/A
6:30 pm75 °FPassing clouds.5 mph47%30.15 "HgN/A
6:00 pm70 °FPassing clouds.5 mph57%30.12 "HgN/A
5:30 pm75 °FScattered clouds.5 mph47%30.12 "HgN/A
5:00 pm77 °FScattered clouds.6 mph44%30.12 "HgN/A
4:00 pm79 °FScattered clouds.6 mph45%30.12 "HgN/A
3:00 pm77 °FScattered clouds.8 mph51%30.12 "HgN/A
2:00 pm79 °FScattered clouds.5 mph48%30.15 "HgN/A
1:30 pm79 °FScattered clouds.5 mph48%30.18 "HgN/A
1:00 pm77 °FScattered clouds.9 mph54%30.18 "HgN/A
12:30 pm77 °FScattered clouds.7 mph54%30.21 "HgN/A
12:00 pm77 °FScattered clouds.6 mph54%30.21 "HgN/A
Weather by CustomWeather, © 2020

See weather overview

Advertising